When you browse on this site, cookies collect data to enhance your experience and personalize the content and advertising you see.
Visit our Privacy Policy to learn more. By continuing to use the site, you agree to this use of cookies and data.
  • In Netherlands
  • List of Countries
  • For 7 days
  • Water Temperature
  • Satellite Maps
  • Weather Map
  • Weather Widgets
  • user-avatar
    Login

    Hourly Weather Alicante

    Today, 18 January, Friday

    Time Temperature Precipitation Wind Pressure Humidity
    00:00 +10°C° 0 mm 1 mps 762 mmHg 87%
    01:00 +9°C° 0 mm 0 mps 762 mmHg 89%
    02:00 +9°C° 0 mm 0 mps 762 mmHg 90%
    03:00 +8°C° 0 mm 0 mps 762 mmHg 91%
    04:00 +8°C° 0 mm 0 mps 762 mmHg 91%
    05:00 +7°C° 0 mm 0 mps 763 mmHg 91%
    06:00 +8°C° 0 mm 1 mps 763 mmHg 86%
    07:00 +9°C° 0 mm 1 mps 763 mmHg 80%
    08:00 +11°C° 0 mm 1 mps 763 mmHg 73%
    09:00 +11°C° 0 mm 0 mps 763 mmHg 67%
    10:00 +13°C° 0 mm 1 mps 763 mmHg 63%
    11:00 +14°C° 0 mm 2 mps 763 mmHg 59%
    12:00 +15°C° 0 mm 2 mps 763 mmHg 55%
    13:00 +15°C° 0 mm 2 mps 762 mmHg 50%
    14:00 +14°C° 0 mm 3 mps 762 mmHg 46%
    15:00 +14°C° 0 mm 3 mps 762 mmHg 41%
    16:00 +13°C° 0 mm 3 mps 762 mmHg 43%
    17:00 +12°C° 0 mm 3 mps 762 mmHg 45%
    18:00 +11°C° 0 mm 3 mps 762 mmHg 47%
    19:00 +11°C° 0 mm 3 mps 762 mmHg 45%
    20:00 +10°C° 0 mm 3 mps 762 mmHg 44%
    21:00 +10°C° 0 mm 4 mps 762 mmHg 43%
    22:00 +10°C° 0 mm 4 mps 762 mmHg 43%
    23:00 +10°C° 0 mm 4 mps 762 mmHg 43%

    Tomorrow, 19 January, Saturday

    Time Temperature Precipitation Wind Pressure Humidity
    00:00 +10°C° 0 mm 4 mps 762 mmHg 43%
    01:00 +10°C° 0 mm 4 mps 762 mmHg 45%
    02:00 +8°C° 0 mm 5 mps 762 mmHg 47%
    03:00 +8°C° 0 mm 5 mps 762 mmHg 48%
    04:00 +7°C° 0 mm 5 mps 762 mmHg 55%
    05:00 +7°C° 0 mm 5 mps 762 mmHg 61%
    06:00 +6°C° 0 mm 5 mps 762 mmHg 67%
    07:00 +7°C° 0 mm 6 mps 762 mmHg 62%
    08:00 +8°C° 0 mm 6 mps 762 mmHg 58%
    09:00 +9°C° 0 mm 6 mps 762 mmHg 54%
    10:00 +10°C° 0 mm 6 mps 762 mmHg 49%
    11:00 +13°C° 0 mm 5 mps 762 mmHg 44%
    12:00 +15°C° 0 mm 5 mps 761 mmHg 39%
    13:00 +15°C° 0 mm 5 mps 761 mmHg 38%
    14:00 +17°C° 0 mm 4 mps 760 mmHg 37%
    15:00 +17°C° 0 mm 4 mps 760 mmHg 35%
    16:00 +14°C° 0 mm 4 mps 760 mmHg 42%
    17:00 +13°C° 0 mm 4 mps 759 mmHg 49%
    18:00 +11°C° 0 mm 4 mps 759 mmHg 56%
    19:00 +11°C° 0 mm 4 mps 759 mmHg 60%
    20:00 +11°C° 0 mm 3 mps 759 mmHg 64%
    21:00 +10°C° 0 mm 2 mps 759 mmHg 68%
    22:00 +10°C° 0.3 mm 2 mps 758 mmHg 70%
    23:00 +10°C° 0.3 mm 2 mps 758 mmHg 72%

    Day after tomorrow, 20 January, Sunday

    Time Temperature Precipitation Wind Pressure Humidity
    00:00 +10°C° 0.3 mm 3 mps 757 mmHg 74%
    01:00 +10°C° 0.4 mm 3 mps 757 mmHg 76%
    02:00 +10°C° 0.4 mm 3 mps 757 mmHg 79%
    03:00 +9°C° 0.4 mm 3 mps 756 mmHg 82%
    04:00 +9°C° 0 mm 3 mps 756 mmHg 83%
    05:00 +9°C° 0 mm 3 mps 755 mmHg 83%
    06:00 +9°C° 0 mm 3 mps 755 mmHg 84%
    07:00 +10°C° 0.7 mm 4 mps 755 mmHg 81%
    08:00 +11°C° 0.7 mm 4 mps 756 mmHg 79%
    09:00 +12°C° 0.7 mm 5 mps 756 mmHg 76%
    10:00 +13°C° 0 mm 4 mps 756 mmHg 69%
    11:00 +15°C° 0 mm 4 mps 756 mmHg 62%
    12:00 +17°C° 0 mm 3 mps 757 mmHg 54%
    13:00 +17°C° 0 mm 3 mps 757 mmHg 53%
    14:00 +17°C° 0 mm 3 mps 757 mmHg 52%
    15:00 +17°C° 0 mm 2 mps 757 mmHg 52%
    16:00 +15°C° 0.1 mm 2 mps 758 mmHg 58%
    17:00 +13°C° 0.1 mm 2 mps 758 mmHg 65%
    18:00 +12°C° 0.1 mm 2 mps 759 mmHg 72%
    19:00 +10°C° 0.1 mm 2 mps 760 mmHg 70%
    20:00 +10°C° 0.1 mm 2 mps 760 mmHg 68%
    21:00 +10°C° 0.1 mm 3 mps 761 mmHg 67%
    22:00 +9°C° 0 mm 3 mps 762 mmHg 66%
    23:00 +9°C° 0 mm 3 mps 762 mmHg 66%

    21 January, Monday

    Time Temperature Precipitation Wind Pressure Humidity
    00:00 +8°C° 0 mm 3 mps 762 mmHg 65%
    01:00 +8°C° 0 mm 3 mps 762 mmHg 65%
    02:00 +8°C° 0 mm 3 mps 763 mmHg 65%
    03:00 +8°C° 0 mm 3 mps 763 mmHg 64%
    04:00 +8°C° 0 mm 3 mps 763 mmHg 66%
    05:00 +7°C° 0 mm 3 mps 763 mmHg 68%
    06:00 +7°C° 0 mm 3 mps 763 mmHg 69%
    07:00 +8°C° 0 mm 3 mps 763 mmHg 66%
    08:00 +9°C° 0 mm 3 mps 764 mmHg 63%
    09:00 +10°C° 0 mm 3 mps 764 mmHg 60%
    10:00 +11°C° 0 mm 3 mps 764 mmHg 54%
    11:00 +13°C° 0 mm 2 mps 764 mmHg 48%
    12:00 +15°C° 0 mm 2 mps 764 mmHg 43%
    13:00 +15°C° 0 mm 2 mps 764 mmHg 42%
    14:00 +15°C° 0 mm 2 mps 764 mmHg 41%
    15:00 +14°C° 0 mm 3 mps 763 mmHg 41%
    16:00 +14°C° 0 mm 2 mps 764 mmHg 49%
    17:00 +12°C° 0 mm 2 mps 764 mmHg 57%
    18:00 +10°C° 0 mm 2 mps 765 mmHg 64%
    19:00 +9°C° 0 mm 2 mps 765 mmHg 65%
    20:00 +8°C° 0 mm 2 mps 766 mmHg 65%
    21:00 +8°C° 0 mm 2 mps 766 mmHg 65%
    22:00 +8°C° 0 mm 2 mps 767 mmHg 64%
    23:00 +7°C° 0 mm 2 mps 767 mmHg 63%

    22 January, Tuesday

    Time Temperature Precipitation Wind Pressure Humidity
    00:00 +7°C° 0 mm 3 mps 767 mmHg 63%
    01:00 +7°C° 0 mm 3 mps 767 mmHg 63%
    02:00 +5°C° 0 mm 3 mps 767 mmHg 64%
    03:00 +6°C° 0 mm 2 mps 766 mmHg 64%
    04:00 +5°C° 0 mm 3 mps 766 mmHg 65%
    05:00 +5°C° 0 mm 3 mps 767 mmHg 65%
    06:00 +4°C° 0 mm 3 mps 767 mmHg 65%
    07:00 +5°C° 0 mm 3 mps 767 mmHg 62%
    08:00 +7°C° 0 mm 3 mps 767 mmHg 58%
    09:00 +8°C° 0 mm 3 mps 767 mmHg 55%
    10:00 +9°C° 0 mm 3 mps 767 mmHg 47%
    11:00 +11°C° 0 mm 3 mps 766 mmHg 40%
    12:00 +12°C° 0 mm 3 mps 766 mmHg 33%
    13:00 +13°C° 0 mm 4 mps 765 mmHg 31%
    14:00 +14°C° 0 mm 6 mps 764 mmHg 30%
    15:00 +15°C° 0 mm 7 mps 763 mmHg 29%
    16:00 +12°C° 0 mm 7 mps 763 mmHg 33%
    17:00 +11°C° 0 mm 7 mps 763 mmHg 38%
    18:00 +10°C° 0 mm 8 mps 763 mmHg 42%
    19:00 +10°C° 0 mm 8 mps 763 mmHg 42%
    20:00 +10°C° 0 mm 8 mps 763 mmHg 42%
    21:00 +10°C° 0 mm 8 mps 763 mmHg 42%
    22:00 +10°C° 0 mm 8 mps 762 mmHg 44%
    23:00 +10°C° 0 mm 9 mps 762 mmHg 46%

    23 January, Wednesday

    Time Temperature Precipitation Wind Pressure Humidity
    00:00 +10°C° 0 mm 9 mps 761 mmHg 49%
    01:00 +10°C° 0 mm 9 mps 761 mmHg 50%
    02:00 +10°C° 0 mm 9 mps 761 mmHg 52%
    03:00 +9°C° 0 mm 10 mps 760 mmHg 54%
    04:00 +8°C° 0 mm 10 mps 760 mmHg 56%
    05:00 +8°C° 0 mm 11 mps 760 mmHg 58%
    06:00 +8°C° 0 mm 11 mps 760 mmHg 60%
    07:00 +8°C° 0 mm 12 mps 760 mmHg 59%
    08:00 +9°C° 0 mm 12 mps 760 mmHg 58%
    09:00 +9°C° 0 mm 12 mps 760 mmHg 57%
    10:00 +10°C° 0 mm 13 mps 759 mmHg 52%
    11:00 +13°C° 0 mm 13 mps 758 mmHg 47%
    12:00 +14°C° 0 mm 14 mps 758 mmHg 42%
    13:00 +15°C° 0 mm 14 mps 757 mmHg 40%
    14:00 +15°C° 0 mm 14 mps 756 mmHg 39%
    15:00 +15°C° 0 mm 14 mps 755 mmHg 37%
    16:00 +14°C° 0 mm 13 mps 755 mmHg 40%
    17:00 +13°C° 0 mm 11 mps 755 mmHg 43%
    18:00 +12°C° 0 mm 10 mps 754 mmHg 46%
    19:00 +12°C° 0 mm 10 mps 754 mmHg 50%
    20:00 +12°C° 0 mm 10 mps 754 mmHg 53%
    21:00 +11°C° 0 mm 11 mps 753 mmHg 57%
    22:00 +11°C° 0 mm 11 mps 753 mmHg 59%
    23:00 +11°C° 0 mm 11 mps 752 mmHg 61%
    Show more